Home   Weather   Burlington   Past weeks

Flag for Canada Past Weather in Burlington, Ontario, Canada — Yesterday and Last 2 Weeks

Now
67 °F

Mild.


Feels Like: 67 °F
Forecast: 61 / 72 °F
Wind: 5 mph from Northeast

Location: Burlington Piers

Current Time: Aug 16, 2017 at 3:48:05 pm

Latest Report: Aug 16, 2017 at 3:00 pm


Visibility: N/A

Pressure: 30.08 "Hg

Humidity: 87%

Dew Point: 63 °F

Location of BurlingtonLocation

Past Weather in Burlington — Graph

°F

Burlington Temperature Yesterday

Maximum temperature yesterday: 80 °F (at 6:00 pm)
Minimum temperature yesterday: 63 °F (at 4:00 am)
Average temperature yesterday: 71 °F

High & Low Weather Summary for the Past Weeks

 TemperatureHumidityPressure
High83 °F (Aug 2, 2:00 pm)94% (Aug 12, 3:00 am)30.18 "Hg (Aug 12, 3:00 am)
Low61 °F (Aug 8, 5:00 am)30% (Aug 9, 5:00 pm)29.71 "Hg (Aug 4, 8:00 pm)
Average70 °F71%29.98 "Hg
* Reported Aug 1 2:00 pm — Aug 16 2:00 pm, Burlington. Weather by CustomWeather, © 2017

Note: Actual official high and low records may vary slightly from our data, if they occured in-between our weather recording intervals... More about our weather records

Advertising

Burlington Weather History for the Previous 24 Hours

Scroll right to see more
 ConditionsComfort  
Time TempWeatherWind HumidityBarometerVisibility
2:00 pm
Wed, Aug 16
65 °FMild.9 mph86%30.09 "HgN/A
1:00 pm65 °FMild.10 mph88%30.09 "HgN/A
12:00 pm65 °FMild.10 mph89%30.09 "HgN/A
11:00 am66 °FMild.9 mph85%30.10 "HgN/A
10:00 am66 °FMild.8 mph83%30.09 "HgN/A
9:00 am67 °FMild.2 mph77%30.08 "HgN/A
8:00 am65 °FMild.3 mph80%30.06 "HgN/A
7:00 am64 °FMild.5 mph86%30.04 "HgN/A
6:00 am64 °FMild.3 mph88%30.03 "HgN/A
5:00 am64 °FMild.2 mph85%30.00 "HgN/A
4:00 am66 °FMild.3 mph75%29.99 "HgN/A
3:00 am66 °FMild.3 mph73%29.99 "HgN/A
2:00 am68 °FMild.6 mph66%29.98 "HgN/A
1:00 am69 °FMild.3 mph63%29.97 "HgN/A
12:00 am70 °FMild.7 mph61%29.96 "HgN/A
11:00 pm
Tue, Aug 15
71 °FMild.9 mph57%29.93 "HgN/A
10:00 pm73 °FMild.9 mph55%29.93 "HgN/A
9:00 pm75 °FMild.8 mph55%29.89 "HgN/A
8:00 pm78 °FWarm.6 mph49%29.88 "HgN/A
7:00 pm78 °FWarm.10 mph47%29.86 "HgN/A
6:00 pm80 °FWarm.8 mph46%29.86 "HgN/A
5:00 pm80 °FWarm.6 mph53%29.85 "HgN/A
4:00 pm78 °FWarm.8 mph56%29.85 "HgN/A
3:00 pm79 °FWarm.6 mph55%29.85 "HgN/A
Weather by CustomWeather, © 2017

See weather overviewHow to use our weather pages